Home > Time Zones > World Clock > Weather > Iran > Kerman > Past weeks

Flag for Iran Weather past 2 weeks in Kerman, Iran

Now
99 °F

Sunny.


Feels Like: 93 °F
Forecast: 61 / 102 °F
Wind: 7 mph from Southwest

Location: Kerman Airport

Current Time: Jul 22, 2014 at 2:24:14 PM

Latest Report: Jul 22, 2014 at 1:30 PM


Visibility: 10 mi

Pressure: 29.86 "Hg

Humidity: 6%

Dew point: 19 °F

Location of KermanLocation

Historic Weather in Kerman — Graph

°F

Kerman temperature yesterday

Maximum temperature yesterday: 100 °F (at 4:30 PM)
Minimum temperature yesterday: 55 °F (at 5:30 AM)
Average temperature yesterday: 86 °F

Past Weeks' High & Low Weather Summary

 TemperatureHumidityPressure
High100 °F (Jul 10, 2:30 PM)32% (Jul 10, 6:20 AM)30.04 "Hg (Jul 10, 6:20 AM)
Low54 °F (Jul 19, 5:30 AM)1% (Jul 19, 3:00 PM)29.77 "Hg (Jul 20, 5:30 AM)
Average84 °F11%29.95 "Hg
* Reported Jul 7 1:30 PM — Jul 22 1:30 PM, Kerman, Weather by CustomWeather, © 2014

Note: Actual official high and low records may vary slightly from our data, if they occured in-between our weather recording intervals... More about our weather records

Advertising

Kerman weather history for previous 24 hours

 ConditionsComfort  
Time TempWeatherWind HumidityBarometerVisibility
1:30 PM
Jul 22
99 °FSunny.7 mph6%29.86 "Hg10 mi
1:00 PM99 °FSunny.7 mph7%29.86 "Hg10 mi
12:30 PM97 °FSunny.7 mph7%29.89 "Hg10 mi
11:30 AM97 °FSunny.14 mph7%29.89 "Hg10 mi
11:00 AM95 °FSunny.9 mph9%29.92 "Hg10 mi
10:30 AM93 °FSunny.9 mph10%29.92 "Hg10 mi
10:00 AM91 °FSunny.5 mph7%29.92 "Hg10 mi
9:30 AM90 °FSunny.5 mph7%29.92 "Hg10 mi
8:55 AM86 °FSunny.5 mph8%29.92 "Hg10 mi
8:30 AM82 °FSunny.No wind9%29.92 "Hg10 mi
7:30 AM72 °FSunny.5 mph11%29.92 "Hg10 mi
6:30 AM64 °FClear.5 mph15%29.89 "Hg10 mi
5:30 AM64 °FClear.5 mph13%29.89 "Hg10 mi
4:30 AM70 °FClear.9 mph9%29.86 "Hg10 mi
3:30 AM66 °FClear.5 mph10%29.86 "Hg10 mi
2:30 AM70 °FClear.5 mph10%29.86 "Hg10 mi
1:30 AM72 °FClear.5 mph8%29.89 "Hg10 mi
12:30 AM73 °FClear.No wind6%29.89 "Hg10 mi
11:30 PM
Jul 21
82 °FClear.7 mph3%29.89 "Hg10 mi
10:30 PM84 °FClear.7 mph3%29.89 "Hg10 mi
9:30 PM86 °FClear.7 mph3%29.89 "Hg10 mi
8:30 PM90 °FSunny.7 mph3%29.86 "Hg10 mi
7:30 PM95 °FSunny.14 mph2%29.83 "Hg10 mi
7:00 PM95 °FSunny.14 mph2%29.83 "Hg10 mi
6:30 PM97 °FSunny.14 mph2%29.83 "Hg10 mi
6:00 PM99 °FSunny.14 mph2%29.83 "Hg10 mi
5:30 PM99 °FSunny.14 mph2%29.83 "Hg10 mi
4:30 PM100 °FSunny.12 mph1%29.83 "Hg10 mi
4:00 PM99 °FSunny.14 mph2%29.86 "Hg10 mi
3:30 PM99 °FSunny.12 mph2%29.86 "Hg10 mi
3:00 PM99 °FSunny.14 mph2%29.86 "Hg10 mi
2:30 PM99 °FSunny.9 mph1%29.89 "Hg10 mi
2:00 PM99 °FSunny.9 mph1%29.89 "Hg10 mi
Weather by CustomWeather, © 2014

See weather overviewHow to use our weather pages